Home > Weather > Toledo > Past weeks

Flag for USA Weather for the Past 2 Weeks in Toledo, Ohio, USA

Now
49 °F

Heavy rain. Mostly cloudy.


Feels Like: 48 °F
Forecast: 47 / 55 °F
Wind: 3 mph from Northeast

Location: Toledo Suburban Airport

Current Time: May 2, 2016 at 2:44:58 AM

Latest Report: May 2, 2016 at 1:55 AM


Visibility: 2 mi

Pressure: 29.95 "Hg

Humidity: 94%

Dew Point: 47 °F

Location of ToledoLocation

Historic Weather in Toledo — Graph

°F

Toledo Temperature Yesterday

Maximum temperature yesterday: 56 °F (at 5:34 PM)
Minimum temperature yesterday: 49 °F (at 6:15 AM)
Average temperature yesterday: 52 °F

High & Low Weather Summary for the Past Weeks

 TemperatureHumidityPressure
High82 °F (Apr 18, 4:14 PM)95% (Apr 22, 5:55 AM)30.47 "Hg (Apr 22, 5:55 AM)
Low36 °F (Apr 24, 6:55 AM)23% (Apr 18, 2:35 PM)29.65 "Hg (Apr 26, 12:35 AM)
Average54 °F67%30.06 "Hg
* Reported Apr 17 1:35 AM — May 2 1:14 AM, Toledo, Weather by CustomWeather, © 2016

Note: Actual official high and low records may vary slightly from our data, if they occured in-between our weather recording intervals... More about our weather records

Advertising

Toledo Weather History for the Previous 24 Hours

Scroll right to see more
 ConditionsComfort  
Time TempWeatherWind HumidityBarometerVisibility
1:14 AM
Mon, May 2
49 °FHeavy rain. Low clouds.3 mph91%29.97 "Hg2 mi
12:55 AM49 °FHeavy rain. Low clouds.No wind90%29.98 "Hg3 mi
12:14 AM50 °FOvercast.8 mph87%29.94 "Hg10 mi
11:35 PM
Sun, May 1
51 °FOvercast.7 mph87%29.96 "Hg10 mi
10:55 PM51 °FOvercast.5 mph86%29.98 "Hg7 mi
10:35 PM51 °FOvercast.5 mph88%29.99 "Hg7 mi
9:55 PM51 °FFog.6 mph91%29.98 "Hg5 mi
9:34 PM51 °FFog.6 mph91%29.98 "Hg5 mi
9:15 PM52 °FFog.7 mph91%29.98 "Hg5 mi
8:55 PM53 °FFog.6 mph90%29.98 "Hg4 mi
8:34 PM53 °FFog.8 mph87%29.98 "Hg5 mi
8:15 PM54 °FFog.3 mph86%30.00 "Hg5 mi
7:55 PM54 °FFog.No wind87%29.99 "Hg4 mi
7:34 PM54 °FFog.No wind87%29.99 "Hg5 mi
6:55 PM54 °FFog.5 mph87%29.98 "Hg5 mi
6:15 PM54 °FFog.5 mph87%29.98 "Hg5 mi
5:55 PM55 °FFog.6 mph86%29.98 "Hg5 mi
5:34 PM56 °FOvercast.7 mph82%29.98 "Hg10 mi
4:54 PM55 °FOvercast.6 mph86%29.98 "Hg7 mi
4:35 PM56 °FOvercast.3 mph84%29.97 "Hg7 mi
4:15 PM56 °FLow clouds.5 mph86%29.97 "Hg7 mi
3:54 PM56 °FMostly cloudy.3 mph86%29.97 "Hg10 mi
3:35 PM55 °FOvercast.5 mph87%29.98 "Hg7 mi
3:15 PM55 °FOvercast.3 mph86%29.98 "Hg10 mi
2:54 PM56 °FMostly cloudy.3 mph85%29.98 "Hg10 mi
2:35 PM56 °FMostly cloudy.3 mph89%29.97 "Hg10 mi
2:15 PM54 °FLow clouds.No wind91%29.97 "Hg10 mi
1:54 PM54 °FLow clouds.No wind93%29.97 "Hg10 mi
1:35 PM53 °FFog.3 mph94%29.98 "Hg5 mi
1:15 PM53 °FFog.No wind94%29.98 "Hg4 mi
12:54 PM53 °FFog.5 mph95%29.98 "Hg3 mi
12:35 PM52 °FFog.No wind95%29.98 "Hg2 mi
12:15 PM52 °FFog.3 mph95%29.97 "Hg2 mi
11:55 AM52 °FFog.3 mph95%29.97 "Hg2 mi
11:35 AM52 °FFog.3 mph94%29.96 "Hg1 mi
11:15 AM51 °FFog.No wind95%29.97 "Hg1 mi
10:55 AM51 °FFog.No wind95%29.96 "Hg1 mi
10:35 AM51 °FFog.No wind95%29.96 "Hg1 mi
10:15 AM51 °FFog.3 mph95%29.95 "Hg1 mi
9:55 AM51 °FFog.3 mph95%29.95 "Hg1 mi
9:35 AM51 °FFog.3 mph95%29.95 "Hg1 mi
9:15 AM50 °FFog.No wind95%29.95 "Hg0 mi
8:54 AM50 °FFog.3 mph95%29.94 "Hg0 mi
8:35 AM50 °FFog.No wind95%29.95 "Hg0 mi
8:15 AM50 °FFog.No wind95%29.94 "Hg0 mi
7:54 AM49 °FFog.No wind95%29.93 "Hg0 mi
7:35 AM49 °FFog.No wind95%29.93 "Hg0 mi
7:15 AM49 °FFog.3 mph95%29.92 "Hg1 mi
6:54 AM49 °FFog.6 mph95%29.90 "Hg1 mi
6:35 AM49 °FFog.No wind95%29.91 "Hg2 mi
6:15 AM49 °FFog.No wind95%29.90 "Hg3 mi
5:54 AM49 °FFog.3 mph94%29.90 "Hg4 mi
5:35 AM49 °FFog.5 mph94%29.89 "Hg4 mi
5:15 AM49 °FFog.3 mph94%29.89 "Hg3 mi
4:54 AM49 °FFog.5 mph94%29.89 "Hg4 mi
4:35 AM49 °FFog.5 mph94%29.89 "Hg3 mi
4:15 AM50 °FFog.3 mph94%29.89 "Hg3 mi
3:54 AM50 °FFog.7 mph95%29.89 "Hg2 mi
3:35 AM50 °FDrizzle. Low clouds.5 mph95%29.89 "Hg3 mi
2:55 AM50 °FDrizzle. Low clouds.5 mph94%29.90 "Hg5 mi
2:34 AM50 °FLight rain. Low clouds.6 mph95%29.90 "Hg7 mi
2:15 AM49 °FLow clouds.7 mph94%29.90 "Hg10 mi
Weather by CustomWeather, © 2016

See weather overviewHow to use our weather pages